Key statistics
Satellite DMSP 5D-2 F13 DEB at a glance.
Uptime
10878
Days in orbit
Revolutions
≈ 14.3
Per day
Orbit
SSO
Sun Synchronous Orbit
Inclination
98.7
Latest
Satellite identification and parameters
Extended collection of information and parameters for DMSP 5D-2 F13 DEB.
Object identification
Identified? True
Debris? True
Object name: DMSP 5D-2 F13 DEB
International designator: 1995-015HX
Object number (NORAD): 42305
Object ID (CCSDS): 42305
Country: UNITED STATES OF AMERICA (US)
Current information (Y/N): Y
RCS size: SMALL
Orbital parameters
Decay date: Jan. 3, 2025
Period: 100.777 minutes
Inclination: 98.721 deg
SMA: 7173.567 km
Apoapsis: 798.336 km
Periapsis: 792.528 km
RAAN: 66.5266 deg
Eccentricy: 0.0004048
Argument of periapsis: 355.7114 deg
Mean anomaly: 4.4032 deg
Mean motion: 14.28893967 rev/day
Mean motion (dot): 0.00009409 rev/day2
B* drag term: 0.0037401 1/REarth
Two-line elements (TLE)
Creation date: Feb. 11, 2024, 5:15 p.m.
Reference frame: TEME
Reference center: EARTH
Epoch: Feb. 11, 2024, 12:23 p.m. UTC
TLE line 0: 0 DMSP 5D-2 F13 DEB
TLE line 1: 1 42305U 95015HX 24042.51648595 .00009409 00000-0 37401-2 0 9998
TLE line 2: 2 42305 98.7210 66.5266 0004048 355.7114 4.4032 14.28893967436065
Live tracking on map
Satellite DMSP 5D-2 F13 DEB has decayed and is no longer in orbit. No tracking available.
In-orbit conjunctions
Satellite DMSP 5D-2 F13 DEB has decayed and is no longer in orbit. No conjunctions available.
Associated space launch
Military meteorological satellite
DMSP 5D-2 F13 DEB was lifted into orbit during the mission ‘Atlas E | DMSP-5D2 F13’, on board a Atlas E space rocket.
The launch took place on March 24, 1995, 2:05 p.m. from Space Launch Complex 3W.
For more information about the launch, click the button.
Atlas E | DMSP-5D2 F13
Agency: N/A
Status: Launch Successful
Launch date: March 24, 1995, 2:05 p.m. UTC
Rocket: Atlas E
Launch pad: Space Launch Complex 3W
Location: Vandenberg SFB, CA, USA
...
Latest news about this satellite
There are no fresh news available about this satellite. Check back as we update our databases every day.
Newsletter sign-up
Weekly statistics, charts and insights to help you stay on top of the space industry.
